Regional Weather Roundup
Issued by NWS Albany, NY

Home | Current Version | Previous Version | Text Only | Print | Product List | Glossary On
Versions: 1 2 3 4 5 6 7 8 9 10 11 12 13 14 15 16 17 18 19 20 21 22 23 24 25 26 27 28 29 30 31 32 33 34 35 36 37 38 39 40 41 42 43 44 45 46 47 48 49 50
000
ASUS41 KALY 051310
RWRALY

NEW YORK STATE HOURLY WEATHER ROUNDUP
NATIONAL WEATHER SERVICE ALBANY NY
800 AM EST MON DEC 05 2016

NOTE: "FAIR" INDICATES FEW OR NO CLOUDS BELOW 12,000 FEET WITH NO
SIGNIFICANT WEATHER AND/OR NO OBSTRUCTIONS TO VISIBILITY.

NYZ032-033-038>043-046>054-057>066-NYZ062>081-082-084-051400-
EAST


CITY           SKY/WX    TMP DP  RH WIND       PRES   REMARKS
ALBANY         LGT SNOW  30  27  88 S3        29.95F FOG
GLENS FALLS    SNOW      28  24  85 CALM      29.95F VSB 1/2
POUGHKEEPSIE   CLOUDY    32  31  96 SE5       29.98F WCI  27
NEWBURGH       CLOUDY    32  32 100 SE6       29.98F FOG     WCI  26
MONTGOMERY     CLOUDY    31  29  92 CALM      29.97S FOG
WHITE PLAINS   LGT RAIN  37  35  92 SW3       29.99S FOG
ISLIP          LGT RAIN  43  41  93 S8        30.01S FOG
NEW YORK CITY  LGT RAIN  42  39  89 S7        30.01F FOG
CENTRAL PARK   CLOUDY    40  37  89 SW8       30.02F WCI  34
$$

NYZ005>009-017-018-044>046-055-056-051400-
CENTRAL


CITY           SKY/WX    TMP DP  RH WIND       PRES   REMARKS
FULTON         MIX PCPN  34  31  88 VRB3      29.83R FOG
SYRACUSE       CLOUDY    37  31  78 VRB6      29.83S WCI  32
ROME           CLOUDY    30  29  96 SE9       29.89S WCI  22
ELMIRA         CLOUDY    35  31  85 CALM      29.88R
BINGHAMTON     CLOUDY    32  30  92 SW10G21   29.86R WCI  24
MONTICELLO     CLOUDY    30  30 100 SE5       29.93S WCI  25
$$

NYZ026>034-041>043-087-051400-
NORTH


CITY           SKY/WX    TMP DP  RH WIND       PRES   REMARKS
WATERTOWN      CLOUDY    35  31  85 S12G21    29.79F WCI  27
FORT DRUM      NOT AVBL
OGDENSBURG     LGT SNOW  29  28  96 E5        29.82F VSB 3/4 WCI  24
MASSENA        LGT SNOW  28  25  88 E9        29.87F VSB 1   WCI  19
SARANAC LAKE   LGT SNOW  24  21  88 CALM      29.79F FOG
PLATTSBURGH    LGT SNOW  29  25  85 S16       29.92F VSB 3/4 WCI  17
$$

NYZ001>004-010>016-019>021-085-051400-
WEST


CITY           SKY/WX    TMP DP  RH WIND       PRES   REMARKS
NIAGARA FALLS  MOCLDY    38  31  76 W20G30    29.87R WCI  28
BUFFALO        CLOUDY    37  31  78 W13G23    29.88R WCI  29
DUNKIRK        CLOUDY    39  31  72 W17G25    29.93R WCI  30
JAMESTOWN      CLOUDY    36  28  75 W17G24    29.90R WCI  25
WELLSVILLE     CLOUDY    36  32  85 W13G20    29.86R FOG     WCI  27
ROCHESTER      CLOUDY    38  35  89 W12       29.84R WCI  30
PENN YAN       CLOUDY    38  32  79 S12       29.84R WCI  30
$$

             KEY
       WCI = WIND CHILL INDEX
       VSB = VISIBILITY
       HX  = HEAT INDEX
$$



USA.gov is the U.S. government's official web portal to all federal, state and local government web resources and services.